| time (UTC) | temp F | wind direction | speed knots | gust knots | rain 1hr in | rain 24hr in | rain mn in | humidity % | barometer mb |
| 20260905195004 | 63 | 301 | 4.3 | 8.7 | 0.00 | 0.06 | 0.06 | 57 | 1027.0 |
| 20260905194003 | 63 | 295 | 3.5 | 7.8 | 0.00 | 0.06 | 0.06 | 57 | 1026.7 |
| 20260905193003 | 63 | 268 | 1.7 | 7.8 | 0.00 | 0.06 | 0.06 | 58 | 1026.7 |
| 20260905192003 | 63 | 265 | 0.9 | 5.2 | 0.00 | 0.06 | 0.06 | 59 | 1026.5 |
| 20260905191003 | 63 | 258 | 1.7 | 5.2 | 0.00 | 0.06 | 0.06 | 60 | 1026.4 |
| 20260905190004 | 63 | 255 | 0.9 | 3.5 | 0.00 | 0.06 | 0.06 | 60 | 1026.5 |
| 20260905185003 | 63 | 271 | 1.7 | 5.2 | 0.00 | 0.06 | 0.06 | 60 | 1026.5 |
| 20260905184003 | 63 | 263 | 0.9 | 3.5 | 0.00 | 0.06 | 0.06 | 61 | 1025.9 |
| 20260905183003 | 64 | 237 | 0.0 | 1.7 | 0.00 | 0.06 | 0.06 | 62 | 1026.0 |
| 20260905182003 | 64 | 239 | 0.0 | 2.6 | 0.00 | 0.06 | 0.06 | 62 | 1026.1 |
| 20260905181003 | 64 | 0 | 0.0 | 0.0 | 0.00 | 0.06 | 0.06 | 62 | 1025.8 |
| 20260905180003 | 65 | 0 | 0.0 | 0.0 | 0.00 | 0.06 | 0.06 | 61 | 1025.6 |
| 20260905175003 | 65 | 259 | 0.0 | 1.7 | 0.00 | 0.06 | 0.06 | 59 | 1025.2 |
| 20260905174003 | 66 | 0 | 0.0 | 0.0 | 0.00 | 0.06 | 0.06 | 57 | 1025.1 |
| 20260905173003 | 67 | 303 | 0.0 | 1.7 | 0.00 | 0.06 | 0.06 | 55 | 1024.9 |
| 20260905172003 | 67 | 298 | 0.9 | 2.6 | 0.00 | 0.06 | 0.06 | 53 | 1024.6 |
| 20260905171003 | 67 | 303 | 0.9 | 3.5 | 0.00 | 0.06 | 0.06 | 52 | 1024.5 |
| 20260905170003 | 68 | 305 | 3.5 | 8.7 | 0.00 | 0.06 | 0.06 | 51 | 1024.6 |
| 20260905165003 | 68 | 309 | 3.5 | 7.8 | 0.00 | 0.06 | 0.06 | 50 | 1024.2 |
| 20260905164003 | 69 | 308 | 2.6 | 7.0 | 0.00 | 0.06 | 0.06 | 49 | 1024.3 |
| 20260905163003 | 69 | 307 | 0.9 | 5.2 | 0.00 | 0.06 | 0.06 | 51 | 1024.2 |
| 20260905162003 | 69 | 307 | 2.6 | 7.0 | 0.00 | 0.06 | 0.06 | 49 | 1023.9 |
| 20260905161003 | 70 | 315 | 4.3 | 12.2 | 0.00 | 0.06 | 0.06 | 47 | 1023.7 |
| 20260905160003 | 72 | 327 | 4.3 | 9.6 | 0.00 | 0.06 | 0.06 | 44 | 1023.4 |
| 20260905155003 | 72 | 335 | 4.3 | 8.7 | 0.00 | 0.06 | 0.06 | 45 | 1023.4 |
| 20260905154003 | 71 | 312 | 6.1 | 13.0 | 0.00 | 0.06 | 0.06 | 46 | 1023.6 |
| 20260905153003 | 73 | 304 | 7.8 | 14.8 | 0.00 | 0.06 | 0.06 | 44 | 1023.1 |
| 20260905152003 | 73 | 310 | 7.8 | 15.6 | 0.00 | 0.06 | 0.06 | 44 | 1023.2 |
| 20260905151003 | 73 | 297 | 7.0 | 13.9 | 0.00 | 0.06 | 0.06 | 44 | 1023.0 |
| 20260905150003 | 72 | 286 | 6.1 | 13.9 | 0.00 | 0.06 | 0.06 | 45 | 1023.0 |
| 20260905145003 | 71 | 308 | 7.0 | 13.9 | 0.00 | 0.06 | 0.06 | 46 | 1023.3 |
| 20260905144003 | 73 | 298 | 7.8 | 14.8 | 0.00 | 0.06 | 0.06 | 45 | 1022.8 |
| 20260905143003 | 73 | 302 | 7.0 | 14.8 | 0.00 | 0.06 | 0.06 | 45 | 1022.9 |
| 20260905142003 | 72 | 298 | 7.8 | 13.0 | 0.00 | 0.06 | 0.06 | 45 | 1023.1 |
| 20260905141003 | 72 | 304 | 7.8 | 14.8 | 0.00 | 0.06 | 0.06 | 45 | 1023.3 |
| 20260905140004 | 72 | 302 | 7.0 | 13.0 | 0.00 | 0.06 | 0.06 | 48 | 1023.3 |
| 20260905135003 | 71 | 288 | 7.0 | 14.8 | 0.00 | 0.06 | 0.06 | 49 | 1023.1 |
| 20260905134003 | 72 | 292 | 7.0 | 13.9 | 0.00 | 0.06 | 0.06 | 47 | 1023.4 |
| 20260905133003 | 71 | 279 | 6.1 | 13.0 | 0.00 | 0.06 | 0.06 | 49 | 1023.3 |
| 20260905132003 | 71 | 300 | 6.1 | 12.2 | 0.00 | 0.06 | 0.06 | 50 | 1023.6 |
| 20260905131003 | 70 | 296 | 7.8 | 15.6 | 0.00 | 0.06 | 0.06 | 50 | 1023.5 |
| 20260905130003 | 71 | 288 | 8.7 | 18.2 | 0.00 | 0.06 | 0.06 | 47 | 1023.4 |
| 20260905125003 | 71 | 289 | 7.0 | 16.5 | 0.00 | 0.06 | 0.06 | 47 | 1023.7 |
| 20260905124003 | 71 | 295 | 6.1 | 15.6 | 0.00 | 0.06 | 0.06 | 47 | 1023.6 |
| 20260905123003 | 70 | 297 | 7.8 | 13.9 | 0.00 | 0.06 | 0.06 | 52 | 1023.8 |
| 20260905122003 | 69 | 305 | 7.8 | 14.8 | 0.00 | 0.06 | 0.06 | 50 | 1023.9 |
| 20260905121003 | 70 | 287 | 7.8 | 15.6 | 0.00 | 0.06 | 0.06 | 51 | 1024.2 |
| 20260905120004 | 70 | 294 | 7.0 | 14.8 | 0.00 | 0.06 | 0.06 | 48 | 1024.2 |
| 20260905115003 | 70 | 297 | 7.8 | 15.6 | 0.00 | 0.06 | 0.06 | 48 | 1024.2 |
| 20260905114003 | 69 | 291 | 7.0 | 15.6 | 0.00 | 0.06 | 0.06 | 49 | 1024.3 |
| 20260905113003 | 69 | 282 | 7.8 | 14.8 | 0.00 | 0.06 | 0.06 | 52 | 1024.1 |
| 20260905112003 | 69 | 285 | 7.8 | 16.5 | 0.00 | 0.06 | 0.06 | 49 | 1024.4 |
| 20260905111003 | 68 | 283 | 6.1 | 14.8 | 0.00 | 0.06 | 0.06 | 55 | 1024.5 |
| 20260905110003 | 67 | 305 | 7.8 | 15.6 | 0.00 | 0.06 | 0.06 | 57 | 1024.7 |
| 20260905105003 | 68 | 303 | 7.8 | 14.8 | 0.00 | 0.06 | 0.06 | 53 | 1024.6 |
| 20260905104003 | 69 | 289 | 7.8 | 15.6 | 0.00 | 0.06 | 0.06 | 52 | 1024.3 |
| 20260905103003 | 68 | 287 | 7.8 | 16.5 | 0.00 | 0.06 | 0.06 | 51 | 1024.4 |
| 20260905102003 | 69 | 298 | 8.7 | 15.6 | 0.00 | 0.06 | 0.06 | 53 | 1024.1 |
| 20260905101003 | 68 | 298 | 7.8 | 14.8 | 0.00 | 0.06 | 0.06 | 53 | 1024.3 |
| 20260905100003 | 68 | 304 | 8.7 | 19.1 | 0.00 | 0.06 | 0.06 | 56 | 1024.5 |
| 20260905095003 | 67 | 299 | 7.8 | 15.6 | 0.00 | 0.06 | 0.06 | 58 | 1024.3 |
| 20260905094003 | 67 | 292 | 7.8 | 15.6 | 0.00 | 0.06 | 0.06 | 59 | 1024.4 |
| 20260905093003 | 67 | 292 | 7.0 | 13.9 | 0.00 | 0.06 | 0.06 | 64 | 1024.4 |
| 20260905092003 | 67 | 297 | 7.8 | 15.6 | 0.00 | 0.06 | 0.06 | 65 | 1024.5 |
| 20260905091003 | 67 | 296 | 7.0 | 13.9 | 0.00 | 0.06 | 0.06 | 68 | 1024.2 |
| 20260905090003 | 66 | 295 | 6.1 | 12.2 | 0.00 | 0.06 | 0.06 | 68 | 1024.2 |
| 20260905085003 | 66 | 265 | 6.1 | 13.9 | 0.00 | 0.06 | 0.06 | 69 | 1024.5 |
| 20260905084003 | 65 | 283 | 6.1 | 12.2 | 0.00 | 0.06 | 0.06 | 71 | 1024.3 |
| 20260905083003 | 64 | 294 | 7.8 | 13.0 | 0.00 | 0.06 | 0.06 | 71 | 1024.4 |
| 20260905082003 | 65 | 288 | 7.0 | 13.9 | 0.00 | 0.06 | 0.06 | 70 | 1024.3 |
| 20260905081003 | 65 | 274 | 7.0 | 15.6 | 0.00 | 0.06 | 0.06 | 73 | 1024.1 |
| 20260905080003 | 64 | 286 | 6.1 | 13.0 | 0.00 | 0.06 | 0.06 | 72 | 1024.0 |
| 20260905075003 | 64 | 286 | 6.1 | 12.2 | 0.00 | 0.06 | 0.06 | 75 | 1024.0 |
| 20260905074003 | 63 | 259 | 6.1 | 12.2 | 0.00 | 0.06 | 0.06 | 76 | 1023.9 |
| 20260905073003 | 63 | 263 | 5.2 | 12.2 | 0.00 | 0.06 | 0.06 | 79 | 1024.2 |
| 20260905072003 | 62 | 265 | 6.1 | 13.9 | 0.00 | 0.06 | 0.06 | 80 | 1023.8 |
| 20260905071003 | 61 | 269 | 6.1 | 13.9 | 0.00 | 0.06 | 0.06 | 81 | 1024.1 |
| 20260905070004 | 61 | 252 | 6.1 | 13.9 | 0.00 | 0.06 | 0.06 | 80 | 1024.0 |
| 20260905065003 | 60 | 245 | 6.1 | 11.3 | 0.00 | 0.06 | 0.06 | 80 | 1024.0 |
| 20260905064003 | 60 | 235 | 4.3 | 9.6 | 0.00 | 0.06 | 0.06 | 81 | 1024.0 |
| 20260905063003 | 59 | 242 | 4.3 | 13.0 | 0.00 | 0.06 | 0.06 | 82 | 1024.2 |
| 20260905062003 | 59 | 234 | 5.2 | 11.3 | 0.01 | 0.06 | 0.06 | 82 | 1024.0 |
| 20260905061003 | 59 | 241 | 5.2 | 11.3 | 0.01 | 0.06 | 0.06 | 83 | 1023.8 |
| 20260905060003 | 59 | 244 | 3.5 | 7.8 | 0.01 | 0.06 | 0.06 | 84 | 1023.7 |
| 20260905055003 | 59 | 249 | 2.6 | 6.1 | 0.01 | 0.06 | 0.06 | 84 | 1023.7 |
| 20260905054003 | 59 | 243 | 1.7 | 6.1 | 0.02 | 0.06 | 0.06 | 85 | 1023.5 |
| 20260905053003 | 59 | 276 | 2.6 | 5.2 | 0.02 | 0.06 | 0.06 | 85 | 1023.4 |
| 20260905052003 | 59 | 241 | 0.9 | 3.5 | 0.03 | 0.05 | 0.05 | 84 | 1023.5 |
| 20260905051003 | 59 | 254 | 1.7 | 3.5 | 0.04 | 0.05 | 0.05 | 84 | 1023.3 |
| 20260905050003 | 59 | 198 | 2.6 | 6.1 | 0.04 | 0.05 | 0.05 | 83 | 1023.0 |
| 20260905045003 | 59 | 218 | 1.7 | 5.2 | 0.05 | 0.05 | 0.05 | 82 | 1022.9 |
| 20260905044003 | 59 | 256 | 2.6 | 7.0 | 0.04 | 0.04 | 0.04 | 81 | 1023.3 |
| 20260905043003 | 60 | 241 | 3.5 | 7.0 | 0.04 | 0.04 | 0.04 | 80 | 1023.1 |
| 20260905042003 | 60 | 275 | 2.6 | 7.8 | 0.02 | 0.02 | 0.03 | 77 | 1023.1 |
| 20260905041003 | 61 | 290 | 4.3 | 8.7 | 0.01 | 0.01 | 0.01 | 74 | 1023.4 |
| 20260905040003 | 61 | 290 | 5.2 | 9.6 | 0.01 | 0.01 | 0.01 | 73 | 1023.0 |
| 20260905035003 | 62 | 291 | 4.3 | 9.6 | 0.00 | 0.00 | 0.00 | 71 | 1022.5 |
| 20260905034003 | 62 | 300 | 3.5 | 7.0 | 0.00 | 0.00 | 0.00 | 70 | 1022.0 |
| 20260905033003 | 62 | 283 | 2.6 | 7.0 | 0.00 | 0.00 | 0.00 | 70 | 1022.1 |
| 20260905032003 | 62 | 253 | 3.5 | 7.0 | 0.00 | 0.00 | 0.00 | 70 | 1022.5 |
| 20260905031003 | 63 | 249 | 2.6 | 5.2 | 0.00 | 0.00 | 0.00 | 71 | 1021.5 |
| 20260905030003 | 63 | 211 | 2.6 | 6.1 | 0.00 | 0.00 | 0.00 | 72 | 1021.3 |
| 20260905025003 | 63 | 273 | 0.9 | 3.5 | 0.00 | 0.00 | 0.00 | 73 | 1021.2 |
| 20260905024003 | 63 | 276 | 1.7 | 5.2 | 0.00 | 0.00 | 0.00 | 72 | 1020.9 |
| 20260905023003 | 63 | 292 | 2.6 | 7.0 | 0.00 | 0.00 | 0.00 | 72 | 1021.4 |
| 20260905022003 | 64 | 312 | 5.2 | 9.6 | 0.00 | 0.00 | 0.00 | 72 | 1021.6 |
| 20260905021003 | 65 | 311 | 5.2 | 9.6 | 0.00 | 0.00 | 0.00 | 70 | 1021.5 |
| 20260905020004 | 65 | 309 | 4.3 | 8.7 | 0.00 | 0.00 | 0.00 | 69 | 1021.1 |
| 20260905015003 | 65 | 307 | 4.3 | 7.0 | 0.00 | 0.00 | 0.00 | 69 | 1020.9 |
| 20260905014003 | 65 | 309 | 4.3 | 8.7 | 0.00 | 0.00 | 0.00 | 70 | 1020.8 |
| 20260905013003 | 65 | 307 | 3.5 | 9.6 | 0.00 | 0.00 | 0.00 | 70 | 1020.5 |
| 20260905012003 | 65 | 305 | 3.5 | 8.7 | 0.00 | 0.00 | 0.00 | 71 | 1020.1 |
| 20260905011003 | 65 | 307 | 2.6 | 8.7 | 0.00 | 0.00 | 0.00 | 72 | 1020.2 |
| 20260905010003 | 65 | 300 | 2.6 | 7.0 | 0.00 | 0.00 | 0.00 | 72 | 1020.5 |
| 20260905005003 | 65 | 308 | 1.7 | 6.1 | 0.00 | 0.00 | 0.00 | 72 | 1019.9 |
| 20260905004003 | 66 | 306 | 3.5 | 7.8 | 0.00 | 0.00 | 0.00 | 71 | 1020.5 |
| 20260905003003 | 66 | 311 | 5.2 | 13.0 | 0.00 | 0.00 | 0.00 | 69 | 1020.2 |
| 20260905002003 | 66 | 315 | 2.6 | 8.7 | 0.00 | 0.00 | 0.00 | 70 | 1020.2 |
| 20260905001003 | 66 | 313 | 2.6 | 6.1 | 0.00 | 0.00 | 0.00 | 70 | 1020.4 |
| 20260905000004 | 66 | 322 | 2.6 | 6.1 | 0.00 | 0.00 | 0.00 | 69 | 1020.0 |
| 20260904235003 | 66 | 328 | 2.6 | 7.0 | 0.00 | 0.00 | 0.00 | 68 | 1019.6 |
| 20260904234003 | 67 | 319 | 4.3 | 13.9 | 0.00 | 0.00 | 0.00 | 68 | 1019.7 |
| 20260904233003 | 67 | 329 | 3.5 | 11.3 | 0.00 | 0.00 | 0.00 | 68 | 1019.6 |
| 20260904232003 | 67 | 318 | 2.6 | 7.8 | 0.00 | 0.00 | 0.00 | 68 | 1018.9 |
| 20260904231003 | 67 | 327 | 4.3 | 9.6 | 0.00 | 0.00 | 0.00 | 68 | 1018.7 |
| 20260904230003 | 67 | 324 | 4.3 | 8.7 | 0.00 | 0.00 | 0.00 | 68 | 1018.0 |
| 20260904225003 | 68 | 314 | 2.6 | 7.8 | 0.00 | 0.00 | 0.00 | 69 | 1017.9 |
| 20260904224003 | 68 | 317 | 3.5 | 7.0 | 0.00 | 0.00 | 0.00 | 68 | 1017.5 |
| 20260904223003 | 69 | 312 | 3.5 | 7.0 | 0.00 | 0.00 | 0.00 | 69 | 1017.0 |
| 20260904222003 | 69 | 315 | 2.6 | 7.8 | 0.00 | 0.00 | 0.00 | 70 | 1016.5 |
| 20260904221003 | 70 | 311 | 3.5 | 7.0 | 0.00 | 0.00 | 0.00 | 69 | 1016.4 |
| 20260904220020 | 71 | 309 | 3.5 | 7.8 | 0.00 | 0.00 | 0.00 | 66 | 1016.0 |
| 20260904215003 | 72 | 311 | 3.5 | 7.8 | 0.00 | 0.00 | 0.00 | 61 | 1015.5 |
| 20260904214003 | 73 | 291 | 2.6 | 7.0 | 0.00 | 0.00 | 0.00 | 59 | 1015.4 |
| 20260904213003 | 73 | 237 | 3.5 | 7.8 | 0.00 | 0.00 | 0.00 | 57 | 1015.3 |
| 20260904212003 | 73 | 206 | 4.3 | 8.7 | 0.00 | 0.00 | 0.00 | 58 | 1015.0 |
| 20260904211003 | 73 | 205 | 3.5 | 7.8 | 0.00 | 0.00 | 0.00 | 58 | 1015.0 |
| 20260904210003 | 73 | 208 | 3.5 | 8.7 | 0.00 | 0.00 | 0.00 | 57 | 1014.9 |
| 20260904205003 | 73 | 210 | 3.5 | 7.0 | 0.00 | 0.00 | 0.00 | 57 | 1015.0 |
| 20260904204003 | 73 | 223 | 3.5 | 7.8 | 0.00 | 0.00 | 0.00 | 57 | 1015.0 |
| 20260904203003 | 73 | 216 | 2.6 | 8.7 | 0.00 | 0.00 | 0.00 | 58 | 1015.2 |
| 20260904202003 | 72 | 211 | 2.6 | 7.8 | 0.00 | 0.00 | 0.00 | 60 | 1015.4 |
| 20260904201003 | 73 | 205 | 1.7 | 5.2 | 0.00 | 0.00 | 0.00 | 59 | 1015.1 |
| 20260904200003 | 73 | 205 | 0.9 | 3.5 | 0.00 | 0.00 | 0.00 | 59 | 1015.2 |